Location: Newark
(45.4422°N, 16.2769°E)
Time: 10:29:30
(UTC+00:00)

Vanguard 2 - Pass Details

Date: 09 December 2019
Orbit: 553 x 2938 km, 32.9° (Epoch: 23 January)

Event Time Altitude Azimuth Distance (km) Brightness Sun altitude
Rises 23:24:31 0° 214° (SW) 5,703 - -66.2°
Reaches altitude 10° 23:28:26 10° 206° (SSW) 4,992 - -65.9°
Maximum altitude 23:41:25 34° 148° (SSE) 3,968 - -64.9°
Exits shadow 23:50:24 22° 107° (ESE) 4,779 11.5 -64.0°
Drops below altitude 10° 23:56:13 10° 93° (E) 5,713 12.1 -63.4°
Sets 00:01:04 0° 85° (E) 6,602 12.5 -62.9°
